Location: Bergen
(60.3910°N, 5.3250°E)
Time: 08:06:50
(UTC+02:00)

ISS - Pass Details

Date: 30 March 2019
Orbit: 408 x 410 km, 51.6° (Epoch: 21 April)

Event Time Altitude Azimuth Distance (km) Brightness Sun altitude
Rises 20:49:23 0° 252° (WSW) 2,339 0.7 -11.5°
Reaches altitude 10° 20:51:56 10° 232° (SW) 1,476 -0.7 -11.7°
Maximum altitude 20:54:11 17° 189° (S) 1,114 -1.8 -12.0°
Enters shadow 20:55:26 14° 162° (SSE) 1,235 -1.8 -12.1°
